Location: Arbon
(43.0005°N, 0.7472°E)
Time: 21:56:16
(UTC+00:00)

Explorer 7 - Pass Details

Date: 05 December 2020
Orbit: 484 x 678 km, 50.3° (Epoch: 25 January)

Event Time Altitude Azimuth Distance (km) Brightness Sun altitude
Rises 06:43:58 0° 287° (WNW) 2,748 - -5.5°
Exits shadow 06:45:33 - 278° (W) 2,234 9.3 -5.3°
Reaches altitude 10° 06:47:10 10° 262° (W) 1,802 9.0 -5.0°
Maximum altitude 06:49:19 14° 230° (SW) 1,532 8.9 -4.6°
Drops below altitude 10° 06:51:24 10° 198° (SSW) 1,741 9.5 -4.3°
Sets 06:54:25 0° 172° (S) 2,587 10.8 -3.8°
